Location: Eaton Estates
(41.3089°N, 82.0057°W)
Time: 15:40:17
(UTC+00:00)

NOAA 18 - Pass Details

Date: 06 April 2023
Orbit: 838 x 860 km, 98.9° (Epoch: 03 June)

Event Time Altitude Azimuth Distance (km) Brightness Sun altitude
Exits shadow 03:05:14 43° 14° (NNE) 1,195 6.1 -31.9°
Drops below altitude 10° 03:09:04 10° 353° (N) 2,505 8.2 -32.4°
Sets 03:11:28 0° 350° (N) 3,445 9.1 -32.7°
